I2476 LMML-LICC

Flight info

Callsign I2476
Flight time N/A
Altitude 15000
Route GZO3B GZO N982 NELDA NELD1H
Aircraft A320/M-S/7123

Departure

Time N/A
Airport Malta International Airport (LMML)

Arrival

Time 2026-05-04 18:30
Airport Catania-Fontanarossa Airport (LICC)
Time Latitude Longitude Altitude Speed Heading
2026-05-04 18:05 35.83481 14.50561 0 ft 0 kts 316°
2026-05-04 18:05 35.83582 14.50440 0 ft 50 kts 315°
2026-05-04 18:05 35.83977 14.49963 0 ft 115 kts 315°
2026-05-04 18:05 35.84686 14.49106 0 ft 160 kts 315°
2026-05-04 18:06 35.86302 14.46682 0 ft 209 kts 307°
2026-05-04 18:06 35.87190 14.45243 0 ft 235 kts 307°
2026-05-04 18:06 35.88152 14.43729 0 ft 237 kts 308°
2026-05-04 18:07 35.89162 14.42174 0 ft 242 kts 308°
2026-05-04 18:07 35.90227 14.40560 0 ft 243 kts 309°
2026-05-04 18:07 35.91284 14.38976 0 ft 247 kts 309°
2026-05-04 18:07 35.92388 14.37330 0 ft 249 kts 309°
2026-05-04 18:08 35.93500 14.35683 0 ft 252 kts 309°
2026-05-04 18:08 35.94615 14.34033 0 ft 254 kts 309°
2026-05-04 18:08 35.95750 14.32356 0 ft 257 kts 309°
2026-05-04 18:08 35.96901 14.30653 0 ft 260 kts 309°
2026-05-04 18:09 35.99236 14.27196 0 ft 265 kts 309°
2026-05-04 18:09 36.01599 14.23695 0 ft 271 kts 310°
2026-05-04 18:10 36.03040 14.22341 0 ft 273 kts 342°
2026-05-04 18:10 36.04843 14.21994 0 ft 276 kts 358°
2026-05-04 18:10 36.06776 14.22004 0 ft 285 kts
2026-05-04 18:10 36.08785 14.22169 0 ft 290 kts
2026-05-04 18:11 36.10740 14.22428 0 ft 291 kts
2026-05-04 18:11 36.12706 14.22753 0 ft 294 kts
2026-05-04 18:11 36.14698 14.23127 0 ft 296 kts
2026-05-04 18:11 36.16703 14.23532 0 ft 298 kts
2026-05-04 18:12 36.40903 14.28846 0 ft 354 kts 10°
2026-05-04 18:12 36.76187 14.37035 0 ft 441 kts
2026-05-04 18:12 36.80703 14.38030 0 ft 434 kts
2026-05-04 18:12 36.83492 14.38754 0 ft 433 kts 18°
2026-05-04 18:13 36.86055 14.40257 0 ft 434 kts 29°
2026-05-04 18:13 36.88519 14.42134 0 ft 434 kts 32°
2026-05-04 18:13 36.93068 14.46008 0 ft 434 kts 35°
2026-05-04 18:14 36.95103 14.47832 0 ft 434 kts 36°
2026-05-04 18:14 36.97424 14.49950 0 ft 434 kts 36°
2026-05-04 18:14 36.99028 14.51431 0 ft 434 kts 36°
2026-05-04 18:15 37.03544 14.55648 0 ft 431 kts 37°
2026-05-04 18:15 37.07460 14.59335 0 ft 436 kts 37°
2026-05-04 18:15 37.09827 14.61571 0 ft 427 kts 37°
2026-05-04 18:16 37.12079 14.63702 0 ft 402 kts 37°
2026-05-04 18:16 37.14185 14.65695 0 ft 382 kts 37°
2026-05-04 18:16 37.16223 14.67648 0 ft 366 kts 37°
2026-05-04 18:17 37.20018 14.71397 0 ft 342 kts 38°
2026-05-04 18:17 37.21778 14.73165 0 ft 333 kts 38°
2026-05-04 18:17 37.25233 14.76667 0 ft 329 kts 39°
2026-05-04 18:18 37.27008 14.78473 0 ft 333 kts 39°
2026-05-04 18:18 37.28657 14.80154 0 ft 334 kts 39°
2026-05-04 18:18 37.30399 14.81995 0 ft 335 kts 46°
2026-05-04 18:18 37.31669 14.84415 0 ft 336 kts 64°
2026-05-04 18:19 37.33302 14.89736 0 ft 328 kts 72°
2026-05-04 18:19 37.33933 14.92458 0 ft 324 kts 75°
2026-05-04 18:19 37.34463 14.95088 0 ft 314 kts 76°
2026-05-04 18:20 37.34910 14.97557 0 ft 296 kts 78°
2026-05-04 18:20 37.35317 15.00001 0 ft 276 kts 78°
2026-05-04 18:20 37.35674 15.02286 0 ft 254 kts 79°
2026-05-04 18:20 37.35987 15.04382 0 ft 236 kts 79°
2026-05-04 18:21 37.36262 15.06275 0 ft 227 kts 79°
2026-05-04 18:21 37.36526 15.08123 0 ft 226 kts 80°
2026-05-04 18:21 37.36801 15.10065 0 ft 225 kts 80°
2026-05-04 18:21 37.37072 15.11997 0 ft 224 kts 80°
2026-05-04 18:22 37.37336 15.13893 0 ft 223 kts 80°
2026-05-04 18:22 37.37604 15.15818 0 ft 227 kts 80°
2026-05-04 18:22 37.37865 15.17686 0 ft 222 kts 80°
2026-05-04 18:22 37.38128 15.19566 0 ft 232 kts 80°
2026-05-04 18:23 37.38395 15.21461 0 ft 223 kts 80°
2026-05-04 18:23 37.38649 15.23266 0 ft 219 kts 80°
2026-05-04 18:23 37.38900 15.25051 0 ft 201 kts 80°
2026-05-04 18:23 37.39149 15.26812 0 ft 214 kts 80°
2026-05-04 18:24 37.39672 15.28558 0 ft 213 kts 46°
2026-05-04 18:24 37.40940 15.29364 0 ft 205 kts 15°
2026-05-04 18:24 37.42379 15.29821 0 ft 219 kts 13°
2026-05-04 18:24 37.43753 15.30251 0 ft 189 kts 14°
2026-05-04 18:25 37.44930 15.30564 0 ft 162 kts
2026-05-04 18:25 37.46055 15.30381 0 ft 169 kts 343°
2026-05-04 18:25 37.47071 15.29695 0 ft 165 kts 304°
2026-05-04 18:25 37.47388 15.28452 0 ft 162 kts 276°
2026-05-04 18:26 37.47346 15.27243 0 ft 174 kts 262°
2026-05-04 18:26 37.47191 15.25899 0 ft 168 kts 268°
2026-05-04 18:26 37.47226 15.24592 0 ft 155 kts 273°
2026-05-04 18:26 37.47276 15.23395 0 ft 158 kts 272°
2026-05-04 18:27 37.47315 15.22103 0 ft 161 kts 271°
2026-05-04 18:27 37.47343 15.20754 0 ft 163 kts 271°
2026-05-04 18:27 37.47365 15.19474 0 ft 162 kts 271°
2026-05-04 18:27 37.47440 15.18173 0 ft 163 kts 277°
2026-05-04 18:28 37.47566 15.16944 0 ft 163 kts 274°
2026-05-04 18:28 37.47548 15.15775 0 ft 161 kts 263°
2026-05-04 18:28 37.47417 15.14668 0 ft 145 kts 261°
2026-05-04 18:28 37.47297 15.13660 0 ft 125 kts 262°
2026-05-04 18:29 37.47200 15.12702 0 ft 133 kts 263°
2026-05-04 18:29 37.47099 15.11590 0 ft 145 kts 263°
2026-05-04 18:29 37.46991 15.10375 0 ft 144 kts 263°
2026-05-04 18:29 37.46886 15.09198 0 ft 126 kts 263°
2026-05-04 18:30 37.46721 15.07366 0 ft 79 kts 263°
2026-05-04 18:30 37.46717 15.06989 0 ft 12 kts 302°
2026-05-04 18:30 37.46751 15.06946 0 ft 11 kts 320°
2026-05-04 18:31 37.46815 15.06878 0 ft 15 kts 320°
2026-05-04 18:31 37.46847 15.06789 0 ft 10 kts 278°
2026-05-04 18:31 37.46850 15.06727 0 ft 6 kts 266°
2026-05-04 18:31 37.46858 15.06692 0 ft 3 kts 313°
2026-05-04 18:32 37.46891 15.06686 0 ft 10 kts 353°
2026-05-04 18:32 37.46929 15.06681 0 ft 0 kts 353°